Flagstaff, AZ

11:53 AM MST on July 25, 2016 (GMT -0700)
Flagstaff Pulliam

Weather History for KFLG - May, 2013

Change the Weather History Date:

Wednesday, May 29, 2013

  Actual Average Record
Temperature  
Mean Temperature 53 °F 55 °F  
Max Temperature 73 °F 72 °F 86 °F (2000)
Min Temperature 33 °F 37 °F 22 °F (1918)
Degree Days  
Heating Degree Days 12 10  
Month to date heating degree days 404 396  
Since 1 July heating degree days 6647 6752  
Cooling Degree Days 0 0  
Month to date cooling degree days 0 0  
Year to date cooling degree days 0 0  
Growing Degree Days 3 (Base 50)    
Moisture  
Dew Point 26 °F    
Average Humidity 50    
Maximum Humidity 82    
Minimum Humidity 17    
Precipitation  
Precipitation 0.00 in 0.02 in 0.92 in (1992)
Month to date precipitation 0.23 0.59  
Year to date precipitation 5.23 8.07  
Snow  
Snow 0.00 in 0.00 in 2.50 in (1971)
Month to date snowfall T 0.7  
Since 1 July snowfall 69.7 101.7  
Snow Depth 0.00 in    
Sea Level Pressure  
Sea Level Pressure 29.72 in    
Wind  
Wind Speed 10 mph (WSW)    
Max Wind Speed 29 mph    
Max Gust Speed 43 mph    
Visibility 10 miles    
Events      
T = Trace of Precipitation, MM = Missing Value Source: NWS Daily Summary

Daily Weather History Graph

Daily Weather History Graph

Search for Another Location

Airport or City:

Trip Planner

Search our weather history database for the weather conditions in past years. The results will help you decide how hot, cold, wet, or windy it might be!

Date:

Astronomy

May. 29, 2013 Rise Set
Actual Time 5:14 AM MST 7:34 PM MST
Civil Twilight 4:45 AM MST 8:03 PM MST
Nautical Twilight 4:09 AM MST 8:39 PM MST
Astronomical Twilight 3:30 AM MST 9:18 PM MST
Moon 11:45 PM MST (5/29) 10:11 AM MST (5/29)
Length of Visible Light 15h 17m
Length of Day
14h 19m
Waning Gibbous, 72% of the Moon is Illuminated
May 29
Waning Gibbous
May 31
Last Quarter
Jun 8
New
Jun 16
First Quarter
Jun 23
Full

Hourly Weather History & Observations

Time (MST) Temp. Dew Point Humidity Pressure Visibility Wind Dir Wind Speed Gust Speed Precip Events Conditions
12:57 AM 48.0 °F 30.9 °F 52% 29.70 in 10.0 mi WNW 3.5 mph - N/A   Clear
1:57 AM 42.1 °F 30.0 °F 62% 29.71 in 10.0 mi Calm Calm - N/A   Clear
2:57 AM 37.9 °F 28.9 °F 70% 29.72 in 10.0 mi Calm Calm - N/A   Clear
3:57 AM 36.0 °F 28.0 °F 73% 29.73 in 10.0 mi Calm Calm - N/A   Clear
4:57 AM 34.0 °F 28.0 °F 79% 29.74 in 10.0 mi Calm Calm - N/A   Clear
5:38 AM 35.6 °F 28.4 °F 75% 29.95 in 10.0 mi Calm Calm - N/A   Partly Cloudy
5:57 AM 39.0 °F 28.9 °F 67% 29.74 in 10.0 mi Calm Calm - N/A   Partly Cloudy
6:57 AM 52.0 °F 30.9 °F 45% 29.71 in 10.0 mi Calm Calm - N/A   Clear
7:57 AM 57.9 °F 25.0 °F 28% 29.70 in 10.0 mi WSW 8.1 mph - N/A   Clear
8:57 AM 61.0 °F 24.1 °F 24% 29.70 in 10.0 mi West 15.0 mph 21.9 mph N/A   Clear
9:57 AM 64.0 °F 26.1 °F 24% 29.70 in 10.0 mi WNW 10.4 mph 23.0 mph N/A   Clear
10:57 AM 66.0 °F 26.1 °F 22% 29.69 in 10.0 mi WSW 19.6 mph 29.9 mph N/A   Partly Cloudy
11:57 AM 68.0 °F 24.1 °F 19% 29.69 in 10.0 mi West 18.4 mph 42.6 mph N/A   Scattered Clouds
12:57 PM 70.0 °F 23.0 °F 17% 29.69 in 10.0 mi WSW 17.3 mph 27.6 mph N/A   Partly Cloudy
1:57 PM 71.1 °F 24.1 °F 17% 29.70 in 10.0 mi WSW 20.7 mph 34.5 mph N/A   Partly Cloudy
2:57 PM 72.0 °F 25.0 °F 17% 29.70 in 10.0 mi WSW 8.1 mph 33.4 mph N/A   Partly Cloudy
3:57 PM 72.0 °F 25.0 °F 17% 29.69 in 10.0 mi SW 18.4 mph 32.2 mph N/A   Scattered Clouds
4:57 PM 70.0 °F 25.0 °F 18% 29.70 in 10.0 mi WSW 15.0 mph 39.1 mph N/A   Partly Cloudy
5:57 PM 69.1 °F 25.0 °F 19% 29.68 in 10.0 mi WSW 16.1 mph 31.1 mph N/A   Clear
6:57 PM 66.0 °F 24.1 °F 20% 29.67 in 10.0 mi WSW 20.7 mph 32.2 mph N/A   Scattered Clouds
7:57 PM 63.0 °F 24.1 °F 23% 29.67 in 10.0 mi SW 13.8 mph - N/A   Partly Cloudy
8:57 PM 60.1 °F 25.0 °F 26% 29.70 in 10.0 mi SW 11.5 mph - N/A   Clear
9:57 PM 57.0 °F 25.0 °F 29% 29.73 in 10.0 mi SW 8.1 mph - N/A   Clear
10:57 PM 53.1 °F 26.1 °F 35% 29.74 in 10.0 mi SW 8.1 mph - N/A   Clear
11:57 PM 51.1 °F 26.1 °F 38% 29.75 in 10.0 mi SW 5.8 mph - N/A   Clear